Regional Weather Roundup
Issued by NWS

Home | Current Version | Previous Version | Text Only | Print | Product List | Glossary Off
Versions: 1 2 3 4 5 6 7 8 9 10 11 12 13 14 15 16 17 18 19 20 21 22 23 24 25 26 27 28 29 30 31 32 33 34 35 36 37 38 39 40 41 42 43 44 45 46 47 48 49 50

000
ASUS43 KLSX 271210
RWRMO

WEATHER SUMMARY FOR MISSOURI
NATIONAL WEATHER SERVICE SPRINGFIELD MO
700 AM CDT SAT AUG 27 2016

NOTE: "FAIR" INDICATES FEW OR NO CLOUDS BELOW 12,000 FEET WITH NO
       SIGNIFICANT WEATHER AND/OR OBSTRUCTIONS TO VISIBILITY.
       CURRENT SKY AND/OR WEATHER CONDITIONS ARE NOT AVAILABLE FOR
       CHILLICOTHE AND FARMINGTON.

MOZ001>031-035>038-043-044-053-054-271300-
...NORTHERN AND WESTERN MISSOURI...

CITY           SKY/WX    TMP DP  RH WIND       PRES   REMARKS
KANSAS CTY INT CLOUDY    69  67  93 W16G22    30.06R
6HR MIN TEMP:  66; 6HR MAX TEMP:  70;

KANSAS C DTWN  PTCLDY    71  68  90 SW8       30.03R
6HR MIN TEMP:  69; 6HR MAX TEMP:  72; 6HR PCP:  0.02;

LEE`S SUMMIT   MOCLDY    71  68  90 S8        30.05R
6HR MIN TEMP:  68; 6HR MAX TEMP:  71; 6HR PCP:  0.01;

ST JOSEPH      TSTM      68  68 100 S6        30.04R FOG
6HR MIN TEMP:  68; 6HR MAX TEMP:  69; 6HR PCP: TRACE;

KIRKSVILLE     CLEAR     65  64  97 SE5       30.05R
6HR MIN TEMP:  64; 6HR MAX TEMP:  70; 6HR PCP:  0.07;


$$
MOZ066>068-077>081-088>096-101>105-271300-
...SOUTHWEST MISSOURI...

CITY           SKY/WX    TMP DP  RH WIND       PRES   REMARKS
SPRINGFIELD    PTCLDY    72  69  90 S6        30.08R
6HR MIN TEMP:  70; 6HR MAX TEMP:  75;

JOPLIN         CLEAR     68  68 100 S3        30.07R
6HR MIN TEMP:  68; 6HR MAX TEMP:  70;

BRANSON          N/A     68  68 100 SE3       30.10R

$$
MOZ032>034-039>042-045>050-055>058-069>072-271300-
...CENTRAL MISSOURI...

CITY           SKY/WX    TMP DP  RH WIND       PRES   REMARKS
COLUMBIA       MOCLDY    71  70  96 SE6       30.07R
6HR MIN TEMP:  70; 6HR MAX TEMP:  74; 6HR PCP: TRACE;

JEFFERSON CITY PTCLDY    71  69  93 CALM      30.05R
6HR MIN TEMP:  71; 6HR MAX TEMP:  75; 6HR PCP:  0.04;

ROLLA          MOCLDY    70  68  93 S6        30.07R
6HR MIN TEMP:  70; 6HR MAX TEMP:  74;

SEDALIA        CLEAR     70  69  97 SW6       30.06R
6HR MIN TEMP:  70; 6HR MAX TEMP:  73;

WHITEMAN AFB   MOCLDY    67  67 100 S5        30.03R
OSAGE BEACH    LGT RAIN  72  72 100 S6        30.08R FOG

$$
MOZ051-052-059>065-271300-
...EAST CENTRAL MISSOURI...

CITY           SKY/WX    TMP DP  RH WIND       PRES   REMARKS
ST LOUIS INTL  CLOUDY    75  69  81 CALM      30.07R
6HR MIN TEMP:  75; 6HR MAX TEMP:  80;

SPIRIT OF STL  MOCLDY    71  71 100 S3        30.06R
6HR MIN TEMP:  71; 6HR MAX TEMP:  78;

ST CHARLES     PTCLDY    72  72 100 S6        30.05R
6HR MIN TEMP:  71; 6HR MAX TEMP:  76;


$$
MOZ072>076-082>087-097>100-106>115-271300-
...SOUTH CENTRAL AND SOUTHEAST MISSOURI...

CITY           SKY/WX    TMP DP  RH WIND       PRES   REMARKS
CAPE GIRARDEAU CLEAR     71  69  93 CALM      30.07R
6HR MIN TEMP:  68; 6HR MAX TEMP:  74;

FARMINGTON     CLOUDY    69  68  96 CALM      30.09R
6HR MIN TEMP:  68; 6HR MAX TEMP:  72;

POPLAR BLUFF   CLOUDY    70  69  97 NW3       30.07R
6HR MIN TEMP:  70; 6HR MAX TEMP:  72;

WEST PLAINS    CLOUDY    70  67  90 S5        30.11R
6HR MIN TEMP:  68; 6HR MAX TEMP:  72;


$$



USA.gov is the U.S. government's official web portal to all federal, state and local government web resources and services.